TimeMST,TemperatureF,Dew PointF,Humidity,Sea Level PressureIn,VisibilityMPH,Wind Direction,Wind SpeedMPH,Gust SpeedMPH,PrecipitationIn,Events,Conditions,WindDirDegrees,DateUTC
12:53 AM,-5.1,-8.0,87,30.20,10.0,Calm,Calm,-,N/A,,Clear,0,2012-12-30 07:53:00
1:53 AM,-2.0,-6.0,83,30.19,10.0,Calm,Calm,-,N/A,,Clear,0,2012-12-30 08:53:00
2:53 AM,-4.0,-9.0,79,30.21,10.0,Variable,3.5,-,N/A,,Clear,0,2012-12-30 09:53:00
3:53 AM,-4.0,-7.1,87,30.20,10.0,ESE,4.6,-,N/A,,Partly Cloudy,120,2012-12-30 10:53:00
4:53 AM,1.0,-4.0,79,30.20,10.0,NW,4.6,-,N/A,,Partly Cloudy,310,2012-12-30 11:53:00
5:53 AM,-2.0,-6.0,83,30.22,10.0,NNW,3.5,-,N/A,,Clear,330,2012-12-30 12:53:00
6:53 AM,-2.0,-5.1,87,30.27,10.0,NNW,4.6,-,N/A,,Clear,340,2012-12-30 13:53:00
7:53 AM,-8.0,-11.9,83,30.30,10.0,SE,3.5,-,N/A,,Clear,130,2012-12-30 14:53:00
8:53 AM,1.0,-4.0,79,30.27,10.0,Calm,Calm,-,0.00,,Clear,0,2012-12-30 15:53:00
9:53 AM,-0.0,-0.9,96,30.30,10.0,Calm,Calm,-,0.00,,Clear,0,2012-12-30 16:53:00
10:53 AM,3.9,-0.0,84,30.29,9.0,Calm,Calm,-,0.00,,Clear,0,2012-12-30 17:53:00
11:53 AM,10.0,1.9,70,30.25,10.0,North,3.5,-,N/A,,Clear,10,2012-12-30 18:53:00
12:53 PM,12.9,3.0,65,30.24,10.0,Calm,Calm,-,N/A,,Clear,0,2012-12-30 19:53:00
1:53 PM,12.0,3.9,70,30.22,10.0,SE,6.9,-,N/A,,Clear,140,2012-12-30 20:53:00
2:53 PM,12.0,3.0,67,30.23,10.0,Calm,Calm,-,N/A,,Clear,0,2012-12-30 21:53:00
3:53 PM,9.0,1.0,70,30.25,10.0,Calm,Calm,-,N/A,,Clear,0,2012-12-30 22:53:00
4:53 PM,7.0,-0.0,73,30.24,10.0,Calm,Calm,-,N/A,,Clear,0,2012-12-30 23:53:00
5:53 PM,3.0,-0.9,84,30.27,8.0,NW,3.5,-,N/A,,Clear,310,2012-12-31 00:53:00
6:53 PM,1.9,-2.0,83,30.28,10.0,NW,3.5,-,N/A,,Clear,310,2012-12-31 01:53:00
7:53 PM,-0.9,-4.0,87,30.34,8.0,SSE,3.5,-,N/A,,Clear,150,2012-12-31 02:53:00
8:53 PM,1.0,-2.9,83,30.29,10.0,South,3.5,-,N/A,,Clear,170,2012-12-31 03:53:00
9:53 PM,3.0,-2.0,80,30.27,10.0,SE,3.5,-,N/A,,Clear,140,2012-12-31 04:53:00
10:53 PM,-2.0,-6.0,83,30.28,8.0,NNW,3.5,-,N/A,,Clear,340,2012-12-31 05:53:00
11:53 PM,-0.9,-5.1,83,30.23,10.0,Calm,Calm,-,N/A,,Clear,0,2012-12-31 06:53:00